Location: Newark
(13.8117°N, 3.6025°W)
Time: 08:35:31
(UTC+00:00)

Vanguard 2 - Pass Details

Date: 01 September 2019
Orbit: 554 x 2937 km, 32.9° (Epoch: 23 September)

Event Time Altitude Azimuth Distance (km) Brightness Sun altitude
Rises 05:47:35 0° 218° (SW) 4,375 10.9 -4.5°
Reaches altitude 10° 05:51:34 10° 207° (SSW) 2,984 10.2 -3.5°
Maximum altitude 05:57:10 27° 152° (SSE) 1,550 9.4 -2.2°
Drops below altitude 10° 06:01:13 10° 94° (E) 2,101 11.6 -1.2°
Sets 06:03:31 0° 80° (E) 2,866 15.1 -0.7°
